User: anonymous   Login
Location: B�rgermoos
(47.6500°N, 9.0667°E)
Time: 17:06:37
(UTC+00:00)
Language:

A-11 Canister half - Orbit

View from above orbital plane
View from above orbital plane
View from above satellite
View from above satellite

Ground track
Ground track

The orbit data is extracted from the following two-line orbital elements,

1 00053U 60009E   21208.73756246 -.00000023  00000-0  60619-3 0  9997
2 00053  47.2773  89.1481 0097015 198.8501 160.8683 12.17256206717936
Epoch (UTC): 27 July 2021 17:42:05
Eccentricity: 0.0097015
inclination: 47.2773°
perigee height: 1527 km
apogee height: 1682 km
right ascension of ascending node: 89.1481°
argument of perigee: 198.8501°
revolutions per day: 12.17256206
mean anomaly at epoch: 160.8683°
orbit number at epoch: 71793

The dashed part of the orbit path shows where the satellite is in the earth's shadow,  

DLR